Home > Weather > Halmstad > Past weeks

Flag for Sweden Past Weather in Halmstad, Sweden — Yesterday and Last 2 Weeks

Now
54 °F

Cool.


Feels Like: 53 °F
Forecast: 55 / 63 °F
Wind: 3 mph from East

Location: Halmstad Swedish Air Force Base

Current Time: Jun 29, 2016 at 12:43:18 AM

Latest Report: Jun 28, 2016 at 11:50 PM


Visibility: N/A

Pressure: 29.95 "Hg

Humidity: 88%

Dew Point: 50 °F

Location of HalmstadLocation

Past Weather in Halmstad — Graph

°F

Halmstad Temperature Yesterday

Maximum temperature yesterday: 64 °F (at 2:50 PM)
Minimum temperature yesterday: 55 °F (at 4:50 AM)
Average temperature yesterday: 60 °F

High & Low Weather Summary for the Past Weeks

 TemperatureHumidityPressure
High79 °F (Jun 25, 2:50 PM)100% (Jun 16, 11:50 PM)30.24 "Hg (Jun 16, 11:50 PM)
Low52 °F (Jun 17, 2:50 AM)46% (Jun 14, 2:50 PM)29.50 "Hg (Jun 15, 5:50 AM)
Average63 °F76%29.86 "Hg
* Reported Jun 13 11:20 PM — Jun 28 11:20 PM, Halmstad, Weather by CustomWeather, © 2016

Note: Actual official high and low records may vary slightly from our data, if they occured in-between our weather recording intervals... More about our weather records

Advertising

Halmstad Weather History for the Previous 24 Hours

Scroll right to see more
 ConditionsComfort  
Time TempWeatherWind HumidityBarometerVisibility
11:20 PM
Tue, Jun 28
55 °FCool.2 mph82%29.95 "HgN/A
10:50 PM57 °FCool.2 mph72%29.95 "HgN/A
10:20 PM59 °FCool.2 mph68%29.95 "HgN/A
9:50 PM57 °FCool.2 mph72%29.95 "HgN/A
9:20 PM61 °FPassing clouds.5 mph63%29.95 "HgN/A
8:50 PM61 °FPartly sunny.No wind63%29.95 "HgN/A
8:20 PM61 °FPartly sunny.1 mph63%29.98 "HgN/A
7:50 PM61 °FBroken clouds.2 mph68%29.98 "HgN/A
7:20 PM61 °FScattered clouds.5 mph68%29.98 "HgN/A
6:50 PM63 °FSunny.8 mph59%29.98 "Hg10 mi
6:20 PM64 °FPassing clouds.7 mph56%29.98 "HgN/A
5:50 PM64 °FPassing clouds.9 mph56%29.98 "HgN/A
5:20 PM64 °FPassing clouds.12 mph56%29.98 "HgN/A
4:50 PM63 °FPassing clouds.10 mph59%29.98 "HgN/A
4:20 PM61 °FSunny.12 mph59%29.98 "Hg10 mi
3:50 PM64 °FPassing clouds.9 mph52%29.98 "HgN/A
3:20 PM63 °FPassing clouds.10 mph56%29.98 "HgN/A
2:50 PM64 °FPassing clouds.12 mph56%30.01 "HgN/A
2:20 PM63 °FPassing clouds.12 mph64%30.01 "HgN/A
1:50 PM63 °FPassing clouds.12 mph56%30.01 "HgN/A
1:20 PM63 °FScattered clouds.13 mph64%30.01 "HgN/A
12:50 PM63 °FScattered clouds.12 mph59%30.01 "HgN/A
12:20 PM63 °FScattered clouds.12 mph64%30.01 "HgN/A
11:50 AM61 °FScattered clouds.12 mph68%30.01 "HgN/A
11:20 AM61 °FPassing clouds.12 mph63%29.98 "HgN/A
10:50 AM61 °FScattered clouds.13 mph68%29.98 "HgN/A
10:20 AM63 °FScattered clouds.13 mph68%29.98 "HgN/A
9:50 AM59 °FScattered clouds.13 mph72%29.98 "HgN/A
9:20 AM61 °FScattered clouds.12 mph63%29.98 "HgN/A
8:50 AM61 °FScattered clouds.12 mph68%29.98 "HgN/A
8:20 AM59 °FPassing clouds.14 mph72%29.95 "HgN/A
7:50 AM57 °FPassing clouds.12 mph77%29.95 "HgN/A
7:20 AM59 °FPassing clouds.10 mph72%29.95 "HgN/A
6:50 AM57 °FScattered clouds.10 mph77%29.95 "HgN/A
6:20 AM57 °FScattered clouds.8 mph82%29.95 "HgN/A
5:50 AM57 °FScattered clouds.8 mph82%29.95 "HgN/A
5:20 AM55 °FScattered clouds.7 mph82%29.95 "HgN/A
4:50 AM55 °FPassing clouds.8 mph88%29.95 "HgN/A
4:20 AM57 °FMostly cloudy.10 mph82%29.92 "HgN/A
3:50 AM57 °FMostly cloudy.12 mph82%29.92 "HgN/A
3:20 AM57 °FPartly cloudy.13 mph82%29.92 "HgN/A
2:50 AM57 °FPartly cloudy.13 mph88%29.92 "HgN/A
2:20 AM59 °FPartly cloudy.10 mph88%29.92 "HgN/A
1:50 AM59 °FPartly cloudy.14 mph88%29.89 "HgN/A
1:20 AM59 °FPartly cloudy.14 mph88%29.89 "HgN/A
12:50 AM59 °FPartly cloudy.13 mph88%29.89 "HgN/A
12:20 AM61 °FMostly cloudy.14 mph88%29.89 "HgN/A
Weather by CustomWeather, © 2016

See weather overviewHow to use our weather pages